Regional Weather Roundup
Issued by NWS

Home | Current Version | Previous Version | Graphics & Text | Print | Product List | Glossary On
Versions: 1 2 3 4 5 6 7 8 9 10 11 12 13 14 15 16 17 18 19 20 21 22 23 24 25 26 27 28 29 30 31 32 33 34 35 36 37 38 39 40 41 42 43 44 45 46 47 48 49 50
000
ASUS43 KBIS 281902
RWRND

NORTH DAKOTA REGIONAL WEATHER ROUNDUP
NATIONAL WEATHER SERVICE BISMARCK ND
200 PM CDT TUE JUL 28 2015

NOTE: "FAIR" INDICATES FEW OR NO CLOUDS BELOW 12,000 FEET WITH NO
SIGNIFICANT WEATHER AND/OR OBSTRUCTIONS TO VISIBILITY.


NDZ001>003-009>011-017-282000-
NORTHWEST NORTH DAKOTA

CITY           SKY/WX    TMP DP  RH WIND       PRES   REMARKS
WILLISTON      LGT RAIN  61  55  81 W37G56    29.55R
MINOT          LGT RAIN  68  52  56 SW24G43   29.51S
MINOT AFB      PTSUNNY   68  56  66 SW30G45   29.48S
$$

NDZ018>021-031>035-040>046-282000-
SOUTHWEST NORTH DAKOTA

CITY           SKY/WX    TMP DP  RH WIND       PRES   REMARKS
BISMARCK       CLOUDY    73  50  44 W32G45    29.73S
DICKINSON      PTSUNNY   64  48  56 W39G52    29.76R
GARRISON         N/A     65  53  65 W32G45    29.60S
HETTINGER ARPT CLOUDY    64  45  49 W31G48    29.89R
$$

NDZ004>008-012>016-024-026-027-054-282000-
NORTHEAST NORTH DAKOTA

CITY           SKY/WX    TMP DP  RH WIND       PRES   REMARKS
GRAND FORKS    MOSUNNY   78  59  51 SW22G31   29.61S
DEVILS LAKE    PTSUNNY   72  52  49 SW25G36   29.59F
$$

NDZ022-023-025-028>030-036>039-047>053-282000-
SOUTHEAST NORTH DAKOTA

CITY           SKY/WX    TMP DP  RH WIND       PRES   REMARKS
FARGO          MOSUNNY   79  57  46 SW20G30   29.70S
JAMESTOWN      PTSUNNY   72  50  45 W25G38    29.71S
$$



USA.gov is the U.S. government's official web portal to all federal, state and local government web resources and services.